User: anonymous   Login
Location: Unspecified
(0.0000°N, 0.0000°E)
Time: 00:21:47
(UTC+00:00)
Language:

DICE 1 - Orbit

View from above orbital plane
View from above orbital plane
View from above satellite
View from above satellite

Ground track
Ground track

The orbit data is extracted from the following two-line orbital elements,

1 37851U 11061B   17231.16712028 +.00000625 +00000-0 +42190-4 0  9997
2 37851 101.7277 130.0637 0188196 270.0309 087.9336 15.01273366315712
Epoch (UTC): 19 August 2017 04:00:39
Eccentricity: 0.0188196
inclination: 101.7277°
perigee height: 432 km
apogee height: 693 km
right ascension of ascending node: 130.0637°
argument of perigee: 270.0309°
revolutions per day: 15.01273366
mean anomaly at epoch: 87.9336°
orbit number at epoch: 31571

The dashed part of the orbit path shows where the satellite is in the earth's shadow,  

DLR